Memphis, TN

2:37 PM CDT on October 20, 2017 (GMT -0500)
Memphis International

Weather History for KMEM - February, 2012

Change the Weather History Date:

Saturday, February 18, 2012

  Actual Average Record
Temperature  
Mean Temperature 49 °F 46 °F  
Max Temperature 53 °F 56 °F 78 °F (1986)
Min Temperature 45 °F 37 °F 1 °F (1936)
Degree Days  
Heating Degree Days 16 19  
Month to date heating degree days 342 376  
Since 1 July heating degree days 1870 2278  
Cooling Degree Days 0 0  
Month to date cooling degree days 0 0  
Year to date cooling degree days 0 1  
Moisture  
Dew Point 36 °F    
Average Humidity 61    
Maximum Humidity 71    
Minimum Humidity 50    
Precipitation  
Precipitation T in 0.16 in 3.91 in (1938)
Month to date precipitation 2.12 2.77  
Year to date precipitation 3.85 6.75  
Snow  
Snow 0.00 in 0.10 in 5.50 in (1921)
Month to date snowfall T 1.0  
Since 1 July snowfall 1.4 3.1  
Snow Depth 0.00 in    
Sea Level Pressure  
Sea Level Pressure 29.99 in    
Wind  
Wind Speed 10 mph (NE)    
Max Wind Speed 23 mph    
Max Gust Speed 28 mph    
Visibility 10 miles    
Events Rain    
T = Trace of Precipitation, MM = Missing Value Source: NWS Daily Summary

Daily Weather History Graph

Daily Weather History Graph

Search for Another Location

Airport or City:

Trip Planner

Search our weather history database for the weather conditions in past years. The results will help you decide how hot, cold, wet, or windy it might be!

Date:

Astronomy

Feb. 18, 2012 Rise Set
Actual Time 6:43 AM CST 5:45 PM CST
Civil Twilight 6:17 AM CST 6:10 PM CST
Nautical Twilight 5:47 AM CST 6:40 PM CST
Astronomical Twilight 5:18 AM CST 7:09 PM CST
Moon 4:16 AM CST (2/18) 2:47 PM CST (2/18)
Length of Visible Light 11h 53m
Length of Day
11h 01m
Waning Crescent, 11% of the Moon is Illuminated
Feb 18
Waning Crescent
Feb 21
New
Feb 29
First Quarter
Mar 8
Full
Mar 14
Last Quarter

Hourly Weather History & Observations

Time (CST) Temp. Windchill Dew Point Humidity Pressure Visibility Wind Dir Wind Speed Gust Speed Precip Events Conditions
12:54 AM 48.9 °F - 37.0 °F 64% 30.09 in 10.0 mi North 5.8 mph - N/A   Mostly Cloudy
1:54 AM 46.0 °F - 36.0 °F 68% 30.09 in 10.0 mi Calm Calm - N/A   Partly Cloudy
2:54 AM 46.0 °F 44.8 °F 37.0 °F 71% 30.08 in 10.0 mi NNE 3.5 mph - N/A   Mostly Cloudy
3:54 AM 48.9 °F - 36.0 °F 61% 30.04 in 10.0 mi ENE 5.8 mph - N/A   Mostly Cloudy
4:54 AM 46.9 °F - 36.0 °F 66% 30.07 in 10.0 mi NNE 3.5 mph - N/A   Mostly Cloudy
5:54 AM 46.0 °F 41.9 °F 36.0 °F 68% 30.03 in 10.0 mi NE 8.1 mph - N/A   Mostly Cloudy
6:54 AM 46.0 °F 41.9 °F 35.1 °F 66% 30.04 in 10.0 mi ENE 8.1 mph - N/A   Mostly Cloudy
7:54 AM 46.4 °F 42.9 °F 33.8 °F 62% 30.05 in 10.0 mi ENE 6.9 mph - N/A   Overcast
8:54 AM 48.2 °F - 35.6 °F 62% 30.03 in 10.0 mi ENE 8.1 mph - N/A   Overcast
9:54 AM 50.0 °F - 35.1 °F 57% 30.06 in 10.0 mi ENE 8.1 mph - N/A   Overcast
10:54 AM 51.1 °F - 35.1 °F 54% 30.06 in 10.0 mi ENE 8.1 mph - N/A   Overcast
11:54 AM 51.8 °F - 35.6 °F 54% 30.05 in 10.0 mi ENE 10.4 mph - N/A   Overcast
12:54 PM 53.1 °F - 35.1 °F 50% 29.99 in 10.0 mi ENE 11.5 mph - N/A   Overcast
1:54 PM 53.1 °F - 35.1 °F 50% 29.96 in 10.0 mi NE 10.4 mph - N/A   Overcast
2:54 PM 53.6 °F - 35.6 °F 51% 29.94 in 10.0 mi NE 11.5 mph - N/A   Overcast
3:54 PM 53.1 °F - 36.0 °F 52% 29.93 in 10.0 mi NNE 11.5 mph - N/A   Overcast
4:54 PM 52.0 °F - 35.1 °F 53% 29.93 in 10.0 mi NNE 11.5 mph 18.4 mph N/A   Overcast
5:54 PM 52.0 °F - 34.0 °F 50% 29.92 in 10.0 mi NE 15.0 mph - N/A   Overcast
6:54 PM 51.8 °F - 35.6 °F 54% 29.91 in 10.0 mi NE 12.7 mph - N/A   Overcast
7:54 PM 50.0 °F - 35.6 °F 58% 29.90 in 10.0 mi NE 13.8 mph 21.9 mph N/A   Overcast
8:54 PM 50.0 °F - 36.0 °F 59% 29.91 in 10.0 mi NNE 17.3 mph 23.0 mph N/A   Overcast
9:54 PM 48.9 °F - 37.0 °F 64% 29.92 in 10.0 mi NE 11.5 mph - N/A   Overcast
10:54 PM 48.0 °F - 35.1 °F 61% 29.94 in 10.0 mi NNE 15.0 mph 24.2 mph N/A   Overcast
11:54 PM 46.0 °F 39.3 °F 35.1 °F 66% 29.94 in 9.0 mi NNE 16.1 mph 23.0 mph 0.00 in Rain Light Rain